| time (UTC) | temp F | wind direction | speed MPH | gust MPH | rain 1hr in | rain 24hr in | rain mn in | humidity % | barometer mb |
| 20260831062218 | 84 | 107 | 1.0 | 3.0 | 0.00 | 0.00 | 0.00 | 85 | 1013.4 |
| 20260831061703 | 84 | 153 | 1.0 | 3.0 | 0.00 | 0.00 | 0.00 | 84 | 1013.4 |
| 20260831061203 | 84 | 121 | 2.0 | 4.0 | 0.00 | 0.00 | 0.00 | 84 | 1013.3 |
| 20260831060647 | 84 | 186 | 2.0 | 4.0 | 0.00 | 0.00 | 0.00 | 84 | 1013.3 |
| 20260831055649 | 84 | 149 | 2.0 | 3.0 | 0.00 | 0.00 | 0.00 | 84 | 1013.2 |
| 20260831055154 | 84 | 134 | 2.0 | 3.0 | 0.00 | 0.00 | 0.00 | 84 | 1013.3 |
| 20260831054650 | 84 | 114 | 2.0 | 4.0 | 0.00 | 0.00 | 0.00 | 84 | 1013.2 |
| 20260831054153 | 85 | 160 | 2.0 | 4.0 | 0.00 | 0.00 | 0.00 | 83 | 1013.2 |
| 20260831053650 | 85 | 86 | 2.0 | 4.0 | 0.00 | 0.00 | 0.00 | 83 | 1013.2 |
| 20260831053155 | 85 | 170 | 2.0 | 4.0 | 0.00 | 0.00 | 0.00 | 83 | 1013.2 |
| 20260831052648 | 85 | 142 | 2.0 | 4.0 | 0.00 | 0.00 | 0.00 | 83 | 1013.1 |
| 20260831052153 | 85 | 132 | 2.0 | 4.0 | 0.00 | 0.00 | 0.00 | 83 | 1013.2 |
| 20260831051133 | 85 | 148 | 2.0 | 4.0 | 0.00 | 0.00 | 0.00 | 82 | 1013.3 |
| 20260831050118 | 85 | 183 | 2.0 | 4.0 | 0.00 | 0.00 | 0.00 | 82 | 1013.3 |
| 20260831045603 | 85 | 98 | 2.0 | 4.0 | 0.00 | 0.00 | 0.00 | 82 | 1013.2 |
| 20260831045104 | 85 | 159 | 2.0 | 4.0 | 0.00 | 0.00 | 0.00 | 82 | 1013.1 |
| 20260831044551 | 85 | 171 | 2.0 | 4.0 | 0.00 | 0.00 | 0.00 | 81 | 1013.1 |
| 20260831044049 | 85 | 125 | 2.0 | 5.0 | 0.00 | 0.00 | 0.00 | 81 | 1013.1 |
| 20260831043551 | 85 | 117 | 3.0 | 6.0 | 0.00 | 0.00 | 0.00 | 81 | 1013.0 |
| 20260831043049 | 85 | 175 | 2.0 | 6.0 | 0.00 | 0.00 | 0.00 | 81 | 1013.0 |
| 20260831042549 | 85 | 138 | 2.0 | 6.0 | 0.00 | 0.00 | 0.00 | 81 | 1013.0 |
| 20260831042050 | 85 | 155 | 3.0 | 8.0 | 0.00 | 0.00 | 0.00 | 81 | 1013.0 |
| 20260831041549 | 85 | 149 | 3.0 | 8.0 | 0.00 | 0.00 | 0.00 | 81 | 1013.0 |
| 20260831041050 | 85 | 120 | 3.0 | 7.0 | 0.00 | 0.00 | 0.00 | 81 | 1012.9 |
| 20260831035551 | 85 | 145 | 3.0 | 5.0 | 0.00 | 0.00 | 0.00 | 80 | 1012.9 |
| 20260831035050 | 86 | 134 | 2.0 | 5.0 | 0.00 | 0.00 | 0.00 | 79 | 1012.9 |
| 20260831034548 | 86 | 120 | 2.0 | 5.0 | 0.00 | 0.00 | 0.00 | 79 | 1012.8 |
| 20260831034047 | 86 | 173 | 2.0 | 7.0 | 0.00 | 0.00 | 0.00 | 78 | 1012.8 |
| 20260831033548 | 86 | 100 | 2.0 | 7.0 | 0.00 | 0.00 | 0.00 | 78 | 1012.8 |
| 20260831033048 | 86 | 129 | 2.0 | 7.0 | 0.00 | 0.00 | 0.00 | 77 | 1012.8 |
| 20260831032547 | 86 | 136 | 2.0 | 7.0 | 0.00 | 0.00 | 0.00 | 77 | 1012.8 |
| 20260831032048 | 86 | 90 | 2.0 | 6.0 | 0.00 | 0.00 | 0.00 | 77 | 1012.7 |
| 20260831031548 | 86 | 132 | 2.0 | 6.0 | 0.00 | 0.00 | 0.00 | 77 | 1012.7 |
| 20260831030549 | 86 | 129 | 2.0 | 8.0 | 0.00 | 0.00 | 0.00 | 77 | 1012.6 |
| 20260831030049 | 86 | 137 | 2.0 | 6.0 | 0.00 | 0.00 | 0.00 | 77 | 1012.5 |
| 20260831025549 | 86 | 145 | 2.0 | 6.0 | 0.00 | 0.00 | 0.00 | 76 | 1012.4 |
| 20260831025048 | 86 | 115 | 2.0 | 6.0 | 0.00 | 0.00 | 0.00 | 76 | 1012.4 |
| 20260831024548 | 86 | 149 | 2.0 | 6.0 | 0.00 | 0.00 | 0.00 | 76 | 1012.3 |
| 20260831024051 | 86 | 115 | 2.0 | 9.0 | 0.00 | 0.00 | 0.00 | 75 | 1012.2 |
| 20260831023548 | 86 | 135 | 2.0 | 9.0 | 0.00 | 0.00 | 0.00 | 75 | 1012.2 |
| 20260831023046 | 86 | 121 | 3.0 | 6.0 | 0.00 | 0.00 | 0.00 | 75 | 1012.1 |
| 20260831022545 | 86 | 141 | 3.0 | 12.0 | 0.00 | 0.00 | 0.00 | 75 | 1012.0 |
| 20260831022044 | 87 | 149 | 3.0 | 12.0 | 0.00 | 0.00 | 0.00 | 75 | 1012.0 |
| 20260831021544 | 87 | 139 | 2.0 | 6.0 | 0.00 | 0.00 | 0.00 | 75 | 1011.9 |
| 20260831021046 | 87 | 106 | 2.0 | 5.0 | 0.00 | 0.00 | 0.00 | 75 | 1011.9 |
| 20260831020545 | 87 | 87 | 3.0 | 8.0 | 0.00 | 0.00 | 0.00 | 75 | 1012.0 |
| 20260831020046 | 87 | 119 | 4.0 | 8.0 | 0.00 | 0.00 | 0.00 | 75 | 1011.9 |
| 20260831015545 | 87 | 115 | 3.0 | 7.0 | 0.00 | 0.00 | 0.00 | 75 | 1011.9 |
| 20260831015043 | 87 | 114 | 3.0 | 7.0 | 0.00 | 0.00 | 0.00 | 75 | 1011.8 |
| 20260831014540 | 87 | 133 | 3.0 | 9.0 | 0.00 | 0.00 | 0.00 | 75 | 1011.8 |
| 20260831014036 | 87 | 154 | 4.0 | 10.0 | 0.00 | 0.00 | 0.00 | 75 | 1011.7 |
| 20260831013034 | 87 | 141 | 3.0 | 9.0 | 0.00 | 0.00 | 0.00 | 74 | 1011.7 |
| 20260831012534 | 87 | 124 | 4.0 | 10.0 | 0.00 | 0.00 | 0.00 | 74 | 1011.6 |
| 20260831012034 | 87 | 87 | 4.0 | 10.0 | 0.00 | 0.00 | 0.00 | 74 | 1011.5 |
| 20260831011034 | 87 | 105 | 4.0 | 12.0 | 0.00 | 0.00 | 0.00 | 74 | 1011.4 |
| 20260831010534 | 88 | 133 | 4.0 | 9.0 | 0.00 | 0.00 | 0.00 | 74 | 1011.4 |
| 20260831010034 | 88 | 106 | 4.0 | 12.0 | 0.00 | 0.00 | 0.00 | 73 | 1011.4 |
| 20260831005534 | 88 | 128 | 4.0 | 12.0 | 0.00 | 0.00 | 0.00 | 73 | 1011.3 |
| 20260831005034 | 88 | 85 | 4.0 | 12.0 | 0.00 | 0.00 | 0.00 | 72 | 1011.3 |
| 20260831004034 | 88 | 123 | 5.0 | 13.0 | 0.00 | 0.00 | 0.00 | 72 | 1011.2 |
| 20260831003031 | 89 | 126 | 4.0 | 13.0 | 0.00 | 0.00 | 0.00 | 69 | 1011.1 |
| 20260831002028 | 89 | 161 | 4.0 | 9.0 | 0.00 | 0.00 | 0.00 | 68 | 1011.0 |
| 20260831001528 | 90 | 100 | 3.0 | 9.0 | 0.00 | 0.00 | 0.00 | 67 | 1010.9 |
| 20260831001028 | 90 | 176 | 3.0 | 8.0 | 0.00 | 0.00 | 0.00 | 66 | 1010.9 |
| 20260831000529 | 90 | 124 | 4.0 | 9.0 | 0.00 | 0.00 | 0.00 | 66 | 1010.9 |
| 20260831000030 | 90 | 147 | 5.0 | 15.0 | 0.00 | 0.00 | 0.00 | 65 | 1010.9 |
| 20260830235029 | 90 | 164 | 5.0 | 12.0 | 0.00 | 0.00 | 0.00 | 65 | 1010.9 |
| 20260830234529 | 91 | 109 | 5.0 | 12.0 | 0.00 | 0.00 | 0.00 | 64 | 1010.8 |
| 20260830233029 | 91 | 135 | 5.0 | 11.0 | 0.00 | 0.00 | 0.00 | 62 | 1010.9 |
| 20260830232530 | 91 | 101 | 5.0 | 12.0 | 0.00 | 0.00 | 0.00 | 62 | 1010.9 |
| 20260830232030 | 92 | 136 | 5.0 | 12.0 | 0.00 | 0.00 | 0.00 | 62 | 1010.7 |
| 20260830231530 | 92 | 81 | 5.0 | 11.0 | 0.00 | 0.00 | 0.00 | 60 | 1010.8 |
| 20260830231027 | 92 | 120 | 5.0 | 12.0 | 0.00 | 0.00 | 0.00 | 61 | 1010.7 |
| 20260830230527 | 92 | 122 | 4.0 | 12.0 | 0.00 | 0.00 | 0.00 | 59 | 1010.8 |
| 20260830230027 | 92 | 128 | 5.0 | 15.0 | 0.00 | 0.00 | 0.00 | 59 | 1010.8 |
| 20260830225527 | 92 | 121 | 5.0 | 15.0 | 0.00 | 0.00 | 0.00 | 59 | 1010.7 |
| 20260830225027 | 93 | 119 | 5.0 | 11.0 | 0.00 | 0.00 | 0.00 | 59 | 1010.8 |
| 20260830224527 | 92 | 75 | 5.0 | 11.0 | 0.00 | 0.00 | 0.00 | 56 | 1010.7 |
| 20260830224027 | 93 | 109 | 6.0 | 11.0 | 0.00 | 0.00 | 0.00 | 57 | 1010.7 |
| 20260830223527 | 93 | 124 | 5.0 | 11.0 | 0.00 | 0.00 | 0.00 | 57 | 1010.6 |
| 20260830223028 | 93 | 119 | 5.0 | 11.0 | 0.00 | 0.00 | 0.00 | 57 | 1010.4 |
| 20260830222527 | 93 | 147 | 5.0 | 11.0 | 0.00 | 0.00 | 0.00 | 56 | 1010.7 |
| 20260830222027 | 93 | 118 | 5.0 | 11.0 | 0.00 | 0.00 | 0.00 | 55 | 1010.7 |
| 20260830221527 | 93 | 99 | 5.0 | 11.0 | 0.00 | 0.00 | 0.00 | 55 | 1010.7 |
| 20260830221027 | 94 | 121 | 5.0 | 12.0 | 0.00 | 0.00 | 0.00 | 55 | 1010.7 |
| 20260830220527 | 94 | 91 | 5.0 | 12.0 | 0.00 | 0.00 | 0.00 | 53 | 1010.6 |
| 20260830220028 | 94 | 107 | 5.0 | 10.0 | 0.00 | 0.00 | 0.00 | 53 | 1010.7 |
| 20260830215525 | 94 | 176 | 5.0 | 10.0 | 0.00 | 0.00 | 0.00 | 54 | 1010.7 |
| 20260830215024 | 95 | 108 | 5.0 | 11.0 | 0.00 | 0.00 | 0.00 | 51 | 1010.7 |
| 20260830214525 | 95 | 98 | 5.0 | 11.0 | 0.00 | 0.00 | 0.00 | 52 | 1010.6 |
| 20260830214025 | 95 | 152 | 5.0 | 11.0 | 0.00 | 0.00 | 0.00 | 51 | 1010.6 |
| 20260830213525 | 95 | 124 | 4.0 | 11.0 | 0.00 | 0.00 | 0.00 | 53 | 1010.7 |
| 20260830213024 | 95 | 121 | 5.0 | 11.0 | 0.00 | 0.00 | 0.00 | 51 | 1010.7 |
| 20260830212025 | 96 | 135 | 5.0 | 13.0 | 0.00 | 0.00 | 0.00 | 51 | 1010.9 |
| 20260830211526 | 96 | 135 | 5.0 | 13.0 | 0.00 | 0.00 | 0.00 | 51 | 1010.8 |
| 20260830211025 | 96 | 117 | 5.0 | 10.0 | 0.00 | 0.00 | 0.00 | 51 | 1010.9 |
| 20260830210525 | 96 | 98 | 5.0 | 10.0 | 0.00 | 0.00 | 0.00 | 51 | 1010.9 |
| 20260830210026 | 97 | 112 | 5.0 | 12.0 | 0.00 | 0.00 | 0.00 | 50 | 1011.0 |
| 20260830205525 | 98 | 150 | 5.0 | 12.0 | 0.00 | 0.00 | 0.00 | 50 | 1011.0 |
| 20260830205025 | 98 | 87 | 4.0 | 13.0 | 0.00 | 0.00 | 0.00 | 48 | 1011.0 |
| 20260830204526 | 97 | 129 | 4.0 | 13.0 | 0.00 | 0.00 | 0.00 | 49 | 1011.1 |
| 20260830203521 | 98 | 119 | 5.0 | 13.0 | 0.00 | 0.00 | 0.00 | 50 | 1011.2 |
| 20260830203021 | 98 | 78 | 4.0 | 13.0 | 0.00 | 0.00 | 0.00 | 49 | 1011.3 |
| 20260830202522 | 98 | 95 | 4.0 | 9.0 | 0.00 | 0.00 | 0.00 | 50 | 1011.5 |
| 20260830202019 | 98 | 133 | 4.0 | 10.0 | 0.00 | 0.00 | 0.00 | 49 | 1011.5 |
| 20260830201520 | 98 | 146 | 4.0 | 10.0 | 0.00 | 0.00 | 0.00 | 50 | 1011.6 |
| 20260830201020 | 97 | 132 | 4.0 | 11.0 | 0.00 | 0.00 | 0.00 | 50 | 1011.7 |
| 20260830200520 | 97 | 128 | 4.0 | 12.0 | 0.00 | 0.00 | 0.00 | 51 | 1011.8 |
| 20260830200021 | 97 | 92 | 4.0 | 12.0 | 0.00 | 0.00 | 0.00 | 51 | 1011.8 |
| 20260830195520 | 97 | 133 | 4.0 | 12.0 | 0.00 | 0.00 | 0.00 | 51 | 1011.8 |
| 20260830195021 | 98 | 134 | 3.0 | 12.0 | 0.00 | 0.00 | 0.00 | 49 | 1011.8 |
| 20260830194520 | 98 | 113 | 3.0 | 8.0 | 0.00 | 0.00 | 0.00 | 49 | 1012.0 |
| 20260830194021 | 97 | 128 | 3.0 | 8.0 | 0.00 | 0.00 | 0.00 | 49 | 1012.1 |
| 20260830193021 | 97 | 93 | 3.0 | 9.0 | 0.00 | 0.00 | 0.00 | 50 | 1012.2 |
| 20260830192517 | 97 | 129 | 3.0 | 9.0 | 0.00 | 0.00 | 0.00 | 49 | 1012.4 |
| 20260830191514 | 97 | 156 | 3.0 | 7.0 | 0.00 | 0.00 | 0.00 | 50 | 1012.6 |
| 20260830191014 | 98 | 129 | 3.0 | 7.0 | 0.00 | 0.00 | 0.00 | 50 | 1012.7 |
| 20260830190014 | 98 | 133 | 3.0 | 7.0 | 0.00 | 0.00 | 0.00 | 50 | 1012.8 |
| 20260830185515 | 98 | 124 | 3.0 | 7.0 | 0.00 | 0.00 | 0.00 | 49 | 1012.9 |
| 20260830185016 | 97 | 138 | 3.0 | 7.0 | 0.00 | 0.00 | 0.00 | 51 | 1012.9 |
| 20260830184515 | 96 | 144 | 3.0 | 7.0 | 0.00 | 0.00 | 0.00 | 51 | 1012.9 |
| 20260830184015 | 96 | 106 | 3.0 | 7.0 | 0.00 | 0.00 | 0.00 | 53 | 1013.0 |
| 20260830183515 | 97 | 80 | 3.0 | 6.0 | 0.00 | 0.00 | 0.00 | 50 | 1013.0 |
| 20260830183015 | 96 | 188 | 3.0 | 8.0 | 0.00 | 0.00 | 0.00 | 52 | 1013.1 |
| 20260830182515 | 96 | 138 | 3.0 | 10.0 | 0.00 | 0.00 | 0.00 | 52 | 1013.1 |
| 20260830182015 | 96 | 81 | 3.0 | 10.0 | 0.00 | 0.00 | 0.00 | 52 | 1013.2 |
| 20260830181515 | 96 | 184 | 3.0 | 8.0 | 0.00 | 0.00 | 0.00 | 51 | 1013.2 |
| 20260830181012 | 96 | 136 | 3.0 | 7.0 | 0.00 | 0.00 | 0.00 | 51 | 1013.2 |
| 20260830180512 | 95 | 55 | 3.0 | 7.0 | 0.00 | 0.00 | 0.00 | 53 | 1013.3 |
| 20260830175510 | 96 | 144 | 3.0 | 7.0 | 0.00 | 0.00 | 0.00 | 52 | 1013.4 |
| 20260830175010 | 96 | 151 | 3.0 | 9.0 | 0.00 | 0.00 | 0.00 | 52 | 1013.5 |
| 20260830174510 | 96 | 78 | 3.0 | 9.0 | 0.00 | 0.00 | 0.00 | 51 | 1013.5 |
| 20260830174010 | 96 | 185 | 4.0 | 9.0 | 0.00 | 0.00 | 0.00 | 50 | 1013.6 |
| 20260830173510 | 96 | 187 | 3.0 | 8.0 | 0.00 | 0.00 | 0.00 | 50 | 1013.7 |
| 20260830173010 | 95 | 166 | 2.0 | 8.0 | 0.00 | 0.00 | 0.00 | 52 | 1013.7 |
| 20260830172510 | 96 | 201 | 3.0 | 8.0 | 0.00 | 0.00 | 0.00 | 53 | 1013.8 |
| 20260830172010 | 96 | 122 | 3.0 | 10.0 | 0.00 | 0.00 | 0.00 | 51 | 1013.9 |
| 20260830170510 | 95 | 118 | 3.0 | 7.0 | 0.00 | 0.00 | 0.00 | 53 | 1014.0 |
| 20260830165508 | 94 | 138 | 2.0 | 6.0 | 0.00 | 0.00 | 0.00 | 54 | 1014.2 |
| 20260830165008 | 94 | 155 | 3.0 | 11.0 | 0.00 | 0.00 | 0.00 | 54 | 1014.3 |
| 20260830164511 | 94 | 140 | 3.0 | 11.0 | 0.00 | 0.00 | 0.00 | 54 | 1014.4 |
| 20260830164008 | 94 | 105 | 3.0 | 8.0 | 0.00 | 0.00 | 0.00 | 55 | 1014.4 |
| 20260830163510 | 93 | 148 | 3.0 | 8.0 | 0.00 | 0.00 | 0.00 | 56 | 1014.4 |
| 20260830162510 | 93 | 86 | 3.0 | 9.0 | 0.00 | 0.00 | 0.00 | 57 | 1014.5 |
| 20260830162008 | 92 | 125 | 3.0 | 9.0 | 0.00 | 0.00 | 0.00 | 58 | 1014.6 |
| 20260830161008 | 92 | 133 | 4.0 | 9.0 | 0.00 | 0.00 | 0.00 | 61 | 1014.6 |
| 20260830160512 | 91 | 119 | 3.0 | 9.0 | 0.00 | 0.00 | 0.00 | 62 | 1014.5 |
| 20260830160009 | 92 | 179 | 3.0 | 7.0 | 0.00 | 0.00 | 0.00 | 62 | 1014.6 |
| 20260830155008 | 91 | 195 | 4.0 | 10.0 | 0.00 | 0.00 | 0.00 | 64 | 1014.6 |
| 20260830154008 | 91 | 102 | 3.0 | 8.0 | 0.00 | 0.00 | 0.00 | 63 | 1014.4 |
| 20260830153510 | 91 | 122 | 3.0 | 7.0 | 0.00 | 0.00 | 0.00 | 65 | 1014.4 |
| 20260830152504 | 90 | 188 | 3.0 | 9.0 | 0.00 | 0.00 | 0.00 | 66 | 1014.5 |
| 20260830152005 | 89 | 181 | 3.0 | 9.0 | 0.00 | 0.00 | 0.00 | 68 | 1014.4 |
| 20260830151505 | 89 | 170 | 4.0 | 11.0 | 0.00 | 0.00 | 0.00 | 68 | 1014.4 |
| 20260830151004 | 89 | 199 | 4.0 | 11.0 | 0.00 | 0.00 | 0.00 | 70 | 1014.3 |
| 20260830150505 | 89 | 186 | 3.0 | 9.0 | 0.00 | 0.00 | 0.00 | 70 | 1014.3 |
| 20260830150005 | 88 | 129 | 2.0 | 7.0 | 0.00 | 0.00 | 0.00 | 72 | 1014.4 |
| 20260830145004 | 88 | 118 | 4.0 | 9.0 | 0.00 | 0.00 | 0.00 | 75 | 1014.3 |
| 20260830144505 | 88 | 186 | 3.0 | 7.0 | 0.00 | 0.00 | 0.00 | 73 | 1014.4 |
| 20260830143503 | 87 | 172 | 2.0 | 8.0 | 0.00 | 0.00 | 0.00 | 76 | 1014.3 |
| 20260830142511 | 86 | 181 | 4.0 | 9.0 | 0.00 | 0.00 | 0.00 | 77 | 1014.3 |
| 20260830142004 | 86 | 175 | 4.0 | 9.0 | 0.00 | 0.00 | 0.00 | 79 | 1014.3 |
| 20260830141002 | 86 | 151 | 3.0 | 7.0 | 0.00 | 0.00 | 0.00 | 80 | 1014.3 |
| 20260830140502 | 85 | 222 | 3.0 | 7.0 | 0.00 | 0.00 | 0.00 | 80 | 1014.3 |
| 20260830135502 | 85 | 153 | 3.0 | 10.0 | 0.00 | 0.00 | 0.00 | 82 | 1014.3 |
| 20260830134503 | 85 | 161 | 2.0 | 5.0 | 0.00 | 0.00 | 0.00 | 81 | 1014.2 |
| 20260830134003 | 85 | 168 | 2.0 | 5.0 | 0.00 | 0.00 | 0.00 | 81 | 1014.2 |
| 20260830133503 | 85 | 135 | 2.0 | 4.0 | 0.00 | 0.00 | 0.00 | 83 | 1014.1 |
| 20260830132502 | 84 | 140 | 2.0 | 3.0 | 0.00 | 0.00 | 0.00 | 83 | 1014.0 |
| 20260830132001 | 84 | 168 | 2.0 | 3.0 | 0.00 | 0.00 | 0.00 | 83 | 1014.0 |
| 20260830130947 | 83 | 165 | 2.0 | 4.0 | 0.00 | 0.00 | 0.00 | 85 | 1013.9 |
| 20260830130433 | 83 | 159 | 2.0 | 4.0 | 0.00 | 0.00 | 0.00 | 86 | 1013.9 |
| 20260830125931 | 82 | 152 | 3.0 | 4.0 | 0.00 | 0.00 | 0.00 | 87 | 1013.8 |
| 20260830125433 | 82 | 168 | 3.0 | 4.0 | 0.00 | 0.00 | 0.00 | 88 | 1013.8 |
| 20260830124933 | 81 | 153 | 3.0 | 4.0 | 0.00 | 0.00 | 0.00 | 89 | 1013.8 |
| 20260830123932 | 81 | 152 | 3.0 | 4.0 | 0.00 | 0.00 | 0.00 | 90 | 1013.8 |
| 20260830123434 | 80 | 149 | 3.0 | 4.0 | 0.00 | 0.00 | 0.00 | 91 | 1013.7 |
| 20260830122433 | 80 | 144 | 2.0 | 4.0 | 0.00 | 0.00 | 0.00 | 91 | 1013.7 |
| 20260830121932 | 80 | 165 | 3.0 | 3.0 | 0.00 | 0.00 | 0.00 | 91 | 1013.7 |
| 20260830121434 | 80 | 112 | 3.0 | 4.0 | 0.00 | 0.00 | 0.00 | 91 | 1013.6 |
| 20260830120933 | 80 | 112 | 3.0 | 4.0 | 0.00 | 0.00 | 0.00 | 91 | 1013.6 |
| 20260830120434 | 80 | 156 | 3.0 | 4.0 | 0.00 | 0.00 | 0.00 | 91 | 1013.6 |
| 20260830115433 | 80 | 164 | 3.0 | 4.0 | 0.00 | 0.00 | 0.00 | 91 | 1013.5 |
| 20260830114920 | 80 | 148 | 2.0 | 3.0 | 0.00 | 0.00 | 0.00 | 91 | 1013.5 |
| 20260830114418 | 80 | 170 | 2.0 | 3.0 | 0.00 | 0.00 | 0.00 | 91 | 1013.4 |
| 20260830113417 | 80 | 158 | 2.0 | 3.0 | 0.00 | 0.00 | 0.00 | 91 | 1013.4 |
| 20260830112922 | 80 | 162 | 2.0 | 3.0 | 0.00 | 0.00 | 0.00 | 91 | 1013.4 |
| 20260830112418 | 80 | 170 | 2.0 | 3.0 | 0.00 | 0.00 | 0.00 | 90 | 1013.3 |
| 20260830111921 | 80 | 144 | 2.0 | 3.0 | 0.00 | 0.00 | 0.00 | 91 | 1013.4 |
| 20260830111419 | 80 | 153 | 2.0 | 3.0 | 0.00 | 0.00 | 0.00 | 91 | 1013.4 |
| 20260830110418 | 80 | 169 | 2.0 | 3.0 | 0.00 | 0.00 | 0.00 | 90 | 1013.4 |
| 20260830105921 | 80 | 167 | 2.0 | 3.0 | 0.00 | 0.00 | 0.00 | 90 | 1013.3 |
| 20260830105419 | 80 | 167 | 2.0 | 4.0 | 0.00 | 0.00 | 0.00 | 90 | 1013.4 |
| 20260830104904 | 80 | 169 | 2.0 | 4.0 | 0.00 | 0.00 | 0.00 | 90 | 1013.4 |
| 20260830104409 | 81 | 144 | 2.0 | 3.0 | 0.00 | 0.00 | 0.00 | 90 | 1013.3 |
| 20260830103908 | 81 | 162 | 2.0 | 3.0 | 0.00 | 0.00 | 0.00 | 90 | 1013.3 |
| 20260830103405 | 81 | 151 | 3.0 | 4.0 | 0.00 | 0.00 | 0.00 | 90 | 1013.3 |
| 20260830102908 | 81 | 152 | 3.0 | 4.0 | 0.00 | 0.00 | 0.00 | 90 | 1013.4 |
| 20260830101405 | 80 | 157 | 2.0 | 3.0 | 0.00 | 0.00 | 0.00 | 90 | 1013.4 |
| 20260830100909 | 80 | 59 | 2.0 | 3.0 | 0.00 | 0.00 | 0.00 | 90 | 1013.4 |
| 20260830094906 | 80 | 153 | 2.0 | 3.0 | 0.00 | 0.00 | 0.00 | 90 | 1013.3 |
| 20260830094404 | 80 | 136 | 2.0 | 3.0 | 0.00 | 0.00 | 0.00 | 90 | 1013.3 |
| 20260830092850 | 80 | 165 | 2.0 | 3.0 | 0.00 | 0.00 | 0.00 | 90 | 1013.4 |
| 20260830092350 | 80 | 158 | 2.0 | 3.0 | 0.00 | 0.00 | 0.00 | 90 | 1013.4 |
| 20260830091850 | 80 | 184 | 2.0 | 3.0 | 0.00 | 0.00 | 0.00 | 90 | 1013.5 |
| 20260830091351 | 81 | 178 | 1.0 | 2.0 | 0.00 | 0.00 | 0.00 | 90 | 1013.5 |
| 20260830090851 | 81 | 167 | 2.0 | 2.0 | 0.00 | 0.00 | 0.00 | 89 | 1013.5 |
| 20260830090349 | 81 | 166 | 2.0 | 2.0 | 0.00 | 0.00 | 0.00 | 89 | 1013.5 |
| 20260830085852 | 81 | 173 | 2.0 | 2.0 | 0.00 | 0.00 | 0.00 | 89 | 1013.6 |
| 20260830085348 | 81 | 167 | 2.0 | 2.0 | 0.00 | 0.00 | 0.00 | 89 | 1013.6 |
| 20260830084852 | 81 | 185 | 2.0 | 2.0 | 0.00 | 0.00 | 0.00 | 89 | 1013.6 |
| 20260830084349 | 81 | 164 | 1.0 | 2.0 | 0.00 | 0.00 | 0.00 | 89 | 1013.6 |
| 20260830083852 | 81 | 179 | 1.0 | 2.0 | 0.00 | 0.00 | 0.00 | 89 | 1013.5 |
| 20260830083349 | 81 | 158 | 1.0 | 2.0 | 0.00 | 0.00 | 0.00 | 89 | 1013.6 |
| 20260830082853 | 81 | 158 | 1.0 | 2.0 | 0.00 | 0.00 | 0.00 | 89 | 1013.6 |
| 20260830082349 | 81 | 153 | 1.0 | 2.0 | 0.00 | 0.00 | 0.00 | 89 | 1013.6 |
| 20260830081839 | 81 | 143 | 1.0 | 2.0 | 0.00 | 0.00 | 0.00 | 89 | 1013.6 |
| 20260830081334 | 81 | 192 | 1.0 | 3.0 | 0.00 | 0.00 | 0.00 | 89 | 1013.6 |
| 20260830080834 | 81 | 185 | 1.0 | 3.0 | 0.00 | 0.00 | 0.00 | 88 | 1013.6 |
| 20260830075820 | 81 | 166 | 1.0 | 2.0 | 0.00 | 0.00 | 0.00 | 88 | 1013.7 |
| 20260830075319 | 81 | 188 | 1.0 | 2.0 | 0.00 | 0.00 | 0.00 | 88 | 1013.8 |
| 20260830074819 | 81 | 180 | 1.0 | 2.0 | 0.00 | 0.00 | 0.00 | 88 | 1013.8 |
| 20260830074320 | 81 | 156 | 2.0 | 3.0 | 0.00 | 0.00 | 0.00 | 88 | 1013.8 |
| 20260830073321 | 82 | 174 | 2.0 | 3.0 | 0.00 | 0.00 | 0.00 | 88 | 1013.9 |
| 20260830072820 | 82 | 188 | 1.0 | 2.0 | 0.00 | 0.00 | 0.00 | 88 | 1014.0 |
| 20260830072320 | 82 | 113 | 1.0 | 2.0 | 0.00 | 0.00 | 0.00 | 88 | 1014.0 |
| 20260830071819 | 82 | 155 | 1.0 | 2.0 | 0.00 | 0.00 | 0.00 | 88 | 1014.1 |
| 20260830071320 | 82 | 164 | 1.0 | 2.0 | 0.00 | 0.00 | 0.00 | 87 | 1014.1 |
| 20260830070806 | 82 | 173 | 2.0 | 2.0 | 0.00 | 0.00 | 0.00 | 87 | 1014.1 |
| 20260830065806 | 82 | 136 | 2.0 | 4.0 | 0.00 | 0.00 | 0.00 | 87 | 1014.1 |
| 20260830065306 | 82 | 157 | 2.0 | 4.0 | 0.00 | 0.00 | 0.00 | 87 | 1014.1 |
| 20260830064805 | 82 | 172 | 2.0 | 3.0 | 0.00 | 0.00 | 0.00 | 87 | 1014.1 |
| 20260830064305 | 82 | 181 | 2.0 | 3.0 | 0.00 | 0.00 | 0.00 | 87 | 1014.1 |
| 20260830063806 | 82 | 147 | 2.0 | 3.0 | 0.00 | 0.00 | 0.00 | 87 | 1014.1 |
| 20260830063306 | 82 | 111 | 2.0 | 3.0 | 0.00 | 0.00 | 0.00 | 87 | 1014.1 |
| 20260830062806 | 82 | 170 | 2.0 | 3.0 | 0.00 | 0.00 | 0.00 | 87 | 1014.2 |